Export;EXP-2023-01 (20230708 09:26);;;StationsCode;NL01483;NL01492;NL01494;NL01496
Periode;20080101 00:00 - 20090101 00:00;;;BeheerderMeetStation;DCMR;DCMR;DCMR;DCMR
Bron;https://data.rivm.nl/data/luchtmeetnet;;;StationsNaam;Botlek-Spoortunnel;Rotterdam-Vasteland;Schiedam-Alphons Arienstraat;Hoek v. Holland-Berghaven
Beschrijving data;https://data.rivm.nl/data/luchtmeetnet/readme.pdf;;;Latitude,Longitude;(51.870069,4.318061);(51.914264,4.479992);(51.921389,4.401389);(51.977803,4.121944)
Accreditatienummer;https://www.rva.nl/alle-geaccrediteerden/;;;StationsGebied;stad;stad;stad;voorstad
;;;;StationsType;industrie;verkeer;achtergrond;industrie
;;;;Meetprincipe;Multi-hoek absorptie fotometrie (MAAP);Multi-hoek absorptie fotometrie (MAAP);Multi-hoek absorptie fotometrie (MAAP);Multi-hoek absorptie fotometrie (MAAP)
;;;;Meetopstelling;Thermo Scientific 5012 MAAP  ;Thermo Scientific 5012 MAAP  ;Thermo Scientific 5012 MAAP  ;Thermo Scientific 5012 MAAP  
;;;;Accreditatienummer;L520;L520;L520;L520
Component;Bep.periode;Eenheid; Begindatumtijd;Einddatumtijd;NL01483;NL01492;NL01494;NL01496
BC;uur;�g/m�;20080101 00:00;20080101 01:00;;14.46;;9.157
BC;uur;�g/m�;20080101 01:00;20080101 02:00;;13.54;10.656;12.16
BC;uur;�g/m�;20080101 02:00;20080101 03:00;;15.406;11.274;12.694
BC;uur;�g/m�;20080101 03:00;20080101 04:00;;11.444;;10.393
BC;uur;�g/m�;20080101 04:00;20080101 05:00;;9.198;10.648;10.723
BC;uur;�g/m�;20080101 05:00;20080101 06:00;;8.307;8.377;11.863
BC;uur;�g/m�;20080101 06:00;20080101 07:00;;8.691;7.736;10.412
BC;uur;�g/m�;20080101 07:00;20080101 08:00;;7.581;8.165;9.136
BC;uur;�g/m�;20080101 08:00;20080101 09:00;;5.81;6.558;7.98
BC;uur;�g/m�;20080101 09:00;20080101 10:00;;4.196;4.627;7.417
BC;uur;�g/m�;20080101 10:00;20080101 11:00;;2.256;3.887;4.63
BC;uur;�g/m�;20080101 11:00;20080101 12:00;;2.087;2.08;3.199
BC;uur;�g/m�;20080101 12:00;20080101 13:00;;2.41;2.103;2.041
BC;uur;�g/m�;20080101 13:00;20080101 14:00;;2.468;2.234;1.694
BC;uur;�g/m�;20080101 14:00;20080101 15:00;;2.65;2.45;2.502
BC;uur;�g/m�;20080101 15:00;20080101 16:00;;3.197;2.941;2.323
BC;uur;�g/m�;20080101 16:00;20080101 17:00;;3.643;3.452;2.566
BC;uur;�g/m�;20080101 17:00;20080101 18:00;;2.952;2.743;2.888
BC;uur;�g/m�;20080101 18:00;20080101 19:00;;2.281;2.14;2.246
BC;uur;�g/m�;20080101 19:00;20080101 20:00;;1.947;1.768;1.93
BC;uur;�g/m�;20080101 20:00;20080101 21:00;;1.726;1.644;1.685
BC;uur;�g/m�;20080101 21:00;20080101 22:00;;1.691;1.633;1.667
BC;uur;�g/m�;20080101 22:00;20080101 23:00;;1.463;1.363;1.511
BC;uur;�g/m�;20080101 23:00;20080102 00:00;;1.183;1.114;1.712
BC;uur;�g/m�;20080102 00:00;20080102 01:00;;1.256;1.114;1.497
BC;uur;�g/m�;20080102 01:00;20080102 02:00;;1.185;1.082;0.965
BC;uur;�g/m�;20080102 02:00;20080102 03:00;;1.145;1.02;0.941
BC;uur;�g/m�;20080102 03:00;20080102 04:00;;1.19;1.082;1.064
BC;uur;�g/m�;20080102 04:00;20080102 05:00;;1.222;1.093;1.002
BC;uur;�g/m�;20080102 05:00;20080102 06:00;;1.264;1.238;1.022
BC;uur;�g/m�;20080102 06:00;20080102 07:00;;1.65;1.488;1.811
BC;uur;�g/m�;20080102 07:00;20080102 08:00;;2.76;2.746;1.543
BC;uur;�g/m�;20080102 08:00;20080102 09:00;;3.787;3.278;1.592
BC;uur;�g/m�;20080102 09:00;20080102 10:00;;3.521;2.883;2.214
BC;uur;�g/m�;20080102 10:00;20080102 11:00;;3.023;2.779;1.846
BC;uur;�g/m�;20080102 11:00;20080102 12:00;;2.422;2.533;1.921
BC;uur;�g/m�;20080102 12:00;20080102 13:00;;2.52;2.034;1.417
BC;uur;�g/m�;20080102 13:00;20080102 14:00;;2.793;1.967;1.156
BC;uur;�g/m�;20080102 14:00;20080102 15:00;;2.69;1.858;0.971
BC;uur;�g/m�;20080102 15:00;20080102 16:00;;2.965;2.181;0.853
BC;uur;�g/m�;20080102 16:00;20080102 17:00;;3.353;2.624;1.365
BC;uur;�g/m�;20080102 17:00;20080102 18:00;;3.086;2.815;1.573
BC;uur;�g/m�;20080102 18:00;20080102 19:00;;3.194;2.819;1.509
BC;uur;�g/m�;20080102 19:00;20080102 20:00;;2.968;2.491;1.633
BC;uur;�g/m�;20080102 20:00;20080102 21:00;;2.914;2.302;1.846
BC;uur;�g/m�;20080102 21:00;20080102 22:00;;2.545;2.104;1.925
BC;uur;�g/m�;20080102 22:00;20080102 23:00;;2.149;1.85;1.573
BC;uur;�g/m�;20080102 23:00;20080103 00:00;;1.72;1.534;1.28
BC;uur;�g/m�;20080103 00:00;20080103 01:00;;1.31;1.278;1.149
BC;uur;�g/m�;20080103 01:00;20080103 02:00;;1.388;1.214;1.064
BC;uur;�g/m�;20080103 02:00;20080103 03:00;;1.19;1.077;0.977
BC;uur;�g/m�;20080103 03:00;20080103 04:00;;1.012;0.998;0.891
BC;uur;�g/m�;20080103 04:00;20080103 05:00;;1.013;0.991;0.932
BC;uur;�g/m�;20080103 05:00;20080103 06:00;;1.224;1.217;1.024
BC;uur;�g/m�;20080103 06:00;20080103 07:00;;1.923;1.62;1.551
BC;uur;�g/m�;20080103 07:00;20080103 08:00;;2.51;1.979;1.386
BC;uur;�g/m�;20080103 08:00;20080103 09:00;;3.139;2.39;1.561
BC;uur;�g/m�;20080103 09:00;20080103 10:00;;3.188;2.956;1.79
BC;uur;�g/m�;20080103 10:00;20080103 11:00;;3.216;3.012;2.218
BC;uur;�g/m�;20080103 11:00;20080103 12:00;;3.257;2.962;2.263
BC;uur;�g/m�;20080103 12:00;20080103 13:00;;3.269;2.978;2.228
BC;uur;�g/m�;20080103 13:00;20080103 14:00;;3.173;2.93;2.508
BC;uur;�g/m�;20080103 14:00;20080103 15:00;;3.284;3.023;2.613
BC;uur;�g/m�;20080103 15:00;20080103 16:00;;3.986;3.334;2.406
BC;uur;�g/m�;20080103 16:00;20080103 17:00;;3.76;3.622;2.858
BC;uur;�g/m�;20080103 17:00;20080103 18:00;;3.95;3.64;2.785
BC;uur;�g/m�;20080103 18:00;20080103 19:00;;3.866;3.366;3.405
BC;uur;�g/m�;20080103 19:00;20080103 20:00;;3.609;3.248;2.926
BC;uur;�g/m�;20080103 20:00;20080103 21:00;;3.019;2.945;2.848
BC;uur;�g/m�;20080103 21:00;20080103 22:00;;2.91;2.718;2.365
BC;uur;�g/m�;20080103 22:00;20080103 23:00;;2.476;2.431;2.56
BC;uur;�g/m�;20080103 23:00;20080104 00:00;;2.345;2.328;2.127
BC;uur;�g/m�;20080104 00:00;20080104 01:00;;2.336;2.215;2.236
BC;uur;�g/m�;20080104 01:00;20080104 02:00;;2.514;2.477;2.193
BC;uur;�g/m�;20080104 02:00;20080104 03:00;;2.445;2.435;2.359
BC;uur;�g/m�;20080104 03:00;20080104 04:00;;2.342;2.357;2.3
BC;uur;�g/m�;20080104 04:00;20080104 05:00;;2.225;2.188;2.234
BC;uur;�g/m�;20080104 05:00;20080104 06:00;;2.177;2.15;2.285
BC;uur;�g/m�;20080104 06:00;20080104 07:00;;2.534;2.242;2.343
BC;uur;�g/m�;20080104 07:00;20080104 08:00;;2.96;3.063;2.375
BC;uur;�g/m�;20080104 08:00;20080104 09:00;;3.434;3.063;4.931
BC;uur;�g/m�;20080104 09:00;20080104 10:00;;3.807;3.549;4.901
BC;uur;�g/m�;20080104 10:00;20080104 11:00;;4.29;3.771;2.804
BC;uur;�g/m�;20080104 11:00;20080104 12:00;;4.398;4.831;2.896
BC;uur;�g/m�;20080104 12:00;20080104 13:00;;4.553;4.053;3.174
BC;uur;�g/m�;20080104 13:00;20080104 14:00;;4.828;5.362;3.74
BC;uur;�g/m�;20080104 14:00;20080104 15:00;;5.335;5.398;4.964
BC;uur;�g/m�;20080104 15:00;20080104 16:00;;5.125;3.903;4.228
BC;uur;�g/m�;20080104 16:00;20080104 17:00;;4.559;4.371;6.256
BC;uur;�g/m�;20080104 17:00;20080104 18:00;;4.15;3.99;4.443
BC;uur;�g/m�;20080104 18:00;20080104 19:00;;4.369;3.669;2.885
BC;uur;�g/m�;20080104 19:00;20080104 20:00;;3.934;3.265;2.926
BC;uur;�g/m�;20080104 20:00;20080104 21:00;;3.603;3.186;3.282
BC;uur;�g/m�;20080104 21:00;20080104 22:00;;3.727;3.919;3.615
BC;uur;�g/m�;20080104 22:00;20080104 23:00;;3.678;3.938;3.047
BC;uur;�g/m�;20080104 23:00;20080105 00:00;;2.403;2.297;2.433
BC;uur;�g/m�;20080105 00:00;20080105 01:00;;1.774;1.694;2.039
BC;uur;�g/m�;20080105 01:00;20080105 02:00;;1.558;1.197;1.435
BC;uur;�g/m�;20080105 02:00;20080105 03:00;;1.115;0.957;0.695
BC;uur;�g/m�;20080105 03:00;20080105 04:00;;0.757;0.648;0.535
BC;uur;�g/m�;20080105 04:00;20080105 05:00;;0.54;0.622;0.581
BC;uur;�g/m�;20080105 05:00;20080105 06:00;;0.85;0.382;0.572
BC;uur;�g/m�;20080105 06:00;20080105 07:00;;1.067;0.436;0.35
BC;uur;�g/m�;20080105 07:00;20080105 08:00;;0.649;0.493;0.578
BC;uur;�g/m�;20080105 08:00;20080105 09:00;;0.967;0.628;0.396
BC;uur;�g/m�;20080105 09:00;20080105 10:00;;0.653;0.792;0.412
BC;uur;�g/m�;20080105 10:00;20080105 11:00;;0.88;0.917;0.517
BC;uur;�g/m�;20080105 11:00;20080105 12:00;;0.903;0.998;0.596
BC;uur;�g/m�;20080105 12:00;20080105 13:00;;0.991;1.016;0.543
BC;uur;�g/m�;20080105 13:00;20080105 14:00;;0.957;1.281;0.683
BC;uur;�g/m�;20080105 14:00;20080105 15:00;;1.447;0.909;0.901
BC;uur;�g/m�;20080105 15:00;20080105 16:00;;1.663;0.935;0.64
BC;uur;�g/m�;20080105 16:00;20080105 17:00;;1.955;0.949;0.641
BC;uur;�g/m�;20080105 17:00;20080105 18:00;;1.979;0.91;0.666
BC;uur;�g/m�;20080105 18:00;20080105 19:00;;1.735;0.964;1.575
BC;uur;�g/m�;20080105 19:00;20080105 20:00;;2.077;0.98;0.873
BC;uur;�g/m�;20080105 20:00;20080105 21:00;;2.618;1.46;0.744
BC;uur;�g/m�;20080105 21:00;20080105 22:00;;1.919;0.817;0.78
BC;uur;�g/m�;20080105 22:00;20080105 23:00;;1.737;0.828;0.669
BC;uur;�g/m�;20080105 23:00;20080106 00:00;;0.975;0.753;0.753
BC;uur;�g/m�;20080106 00:00;20080106 01:00;;1.028;0.8;0.647
BC;uur;�g/m�;20080106 01:00;20080106 02:00;;1.639;0.906;0.982
BC;uur;�g/m�;20080106 02:00;20080106 03:00;;3.516;0.988;0.882
BC;uur;�g/m�;20080106 03:00;20080106 04:00;;5.117;1.249;1.919
BC;uur;�g/m�;20080106 04:00;20080106 05:00;;8.926;1.592;0.872
BC;uur;�g/m�;20080106 05:00;20080106 06:00;;3.26;1.138;0.764
BC;uur;�g/m�;20080106 06:00;20080106 07:00;;1.457;1.189;1.769
BC;uur;�g/m�;20080106 07:00;20080106 08:00;;2.075;0.806;0.57
BC;uur;�g/m�;20080106 08:00;20080106 09:00;;1.512;0.614;0.814
BC;uur;�g/m�;20080106 09:00;20080106 10:00;;1.179;0.716;0.483
BC;uur;�g/m�;20080106 10:00;20080106 11:00;;2.113;0.675;0.743
BC;uur;�g/m�;20080106 11:00;20080106 12:00;;2.552;1.369;0.979
BC;uur;�g/m�;20080106 12:00;20080106 13:00;;2.267;1.004;0.893
BC;uur;�g/m�;20080106 13:00;20080106 14:00;;2.174;0.895;1.201
BC;uur;�g/m�;20080106 14:00;20080106 15:00;;1.849;1.054;1.502
BC;uur;�g/m�;20080106 15:00;20080106 16:00;;2.131;1.231;1.067
BC;uur;�g/m�;20080106 16:00;20080106 17:00;;2.335;1.455;1.446
BC;uur;�g/m�;20080106 17:00;20080106 18:00;;2.465;1.61;0.793
BC;uur;�g/m�;20080106 18:00;20080106 19:00;;1.981;2.074;0.935
BC;uur;�g/m�;20080106 19:00;20080106 20:00;;1.991;1.843;1.174
BC;uur;�g/m�;20080106 20:00;20080106 21:00;;2.369;2.418;1.287
BC;uur;�g/m�;20080106 21:00;20080106 22:00;;3.074;2.924;1.733
BC;uur;�g/m�;20080106 22:00;20080106 23:00;;3.894;3.033;2.763
BC;uur;�g/m�;20080106 23:00;20080107 00:00;;3.123;3.442;1.566
BC;uur;�g/m�;20080107 00:00;20080107 01:00;;1.918;2.098;2.194
BC;uur;�g/m�;20080107 01:00;20080107 02:00;;1.127;1.468;1.377
BC;uur;�g/m�;20080107 02:00;20080107 03:00;;0.679;0.627;0.866
BC;uur;�g/m�;20080107 03:00;20080107 04:00;;0.467;0.527;0.636
BC;uur;�g/m�;20080107 04:00;20080107 05:00;;0.574;0.519;0.665
BC;uur;�g/m�;20080107 05:00;20080107 06:00;;1.017;0.759;1.372
BC;uur;�g/m�;20080107 06:00;20080107 07:00;;1.723;1.914;1.594
BC;uur;�g/m�;20080107 07:00;20080107 08:00;;2.117;1.177;1.12
BC;uur;�g/m�;20080107 08:00;20080107 09:00;;3.09;1.516;1.331
BC;uur;�g/m�;20080107 09:00;20080107 10:00;;2.321;1.103;1.271
BC;uur;�g/m�;20080107 10:00;20080107 11:00;;;1.108;1.629
BC;uur;�g/m�;20080107 11:00;20080107 12:00;;1.91;1.148;0.831
BC;uur;�g/m�;20080107 12:00;20080107 13:00;;1.838;1.034;0.664
BC;uur;�g/m�;20080107 13:00;20080107 14:00;;2.045;1.012;0.779
BC;uur;�g/m�;20080107 14:00;20080107 15:00;;2.218;0.818;0.863
BC;uur;�g/m�;20080107 15:00;20080107 16:00;;2.683;0.993;1.16
BC;uur;�g/m�;20080107 16:00;20080107 17:00;;;1.605;1.048
BC;uur;�g/m�;20080107 17:00;20080107 18:00;;3.161;1.319;1.228
BC;uur;�g/m�;20080107 18:00;20080107 19:00;;2.347;0.926;0.702
BC;uur;�g/m�;20080107 19:00;20080107 20:00;;1.281;0.605;0.808
BC;uur;�g/m�;20080107 20:00;20080107 21:00;;1.199;0.442;0.505
BC;uur;�g/m�;20080107 21:00;20080107 22:00;;0.937;0.393;0.618
BC;uur;�g/m�;20080107 22:00;20080107 23:00;;0.896;0.503;0.583
BC;uur;�g/m�;20080107 23:00;20080108 00:00;;0.622;0.401;0.561
BC;uur;�g/m�;20080108 00:00;20080108 01:00;;0.733;0.376;0.691
BC;uur;�g/m�;20080108 01:00;20080108 02:00;;0.766;0.36;0.484
BC;uur;�g/m�;20080108 02:00;20080108 03:00;;1.066;0.491;1.088
BC;uur;�g/m�;20080108 03:00;20080108 04:00;;1.123;0.785;1.166
BC;uur;�g/m�;20080108 04:00;20080108 05:00;;1.51;0.816;1.179
BC;uur;�g/m�;20080108 05:00;20080108 06:00;;1.469;0.63;0.725
BC;uur;�g/m�;20080108 06:00;20080108 07:00;;;0.694;0.899
BC;uur;�g/m�;20080108 07:00;20080108 08:00;;4.019;0.991;1.021
BC;uur;�g/m�;20080108 08:00;20080108 09:00;;3.961;1.92;0.699
BC;uur;�g/m�;20080108 09:00;20080108 10:00;;3.154;1.777;0.887
BC;uur;�g/m�;20080108 10:00;20080108 11:00;;2.968;1.831;2.028
BC;uur;�g/m�;20080108 11:00;20080108 12:00;;2.933;2.107;1.594
BC;uur;�g/m�;20080108 12:00;20080108 13:00;;2.542;2.051;1.963
BC;uur;�g/m�;20080108 13:00;20080108 14:00;;2.383;2.533;1.506
BC;uur;�g/m�;20080108 14:00;20080108 15:00;;2.287;1.965;1.451
BC;uur;�g/m�;20080108 15:00;20080108 16:00;;2.453;2.044;1.466
BC;uur;�g/m�;20080108 16:00;20080108 17:00;;2.883;2.931;1.634
BC;uur;�g/m�;20080108 17:00;20080108 18:00;;3.012;2.702;1.597
BC;uur;�g/m�;20080108 18:00;20080108 19:00;;2.346;2.044;1.969
BC;uur;�g/m�;20080108 19:00;20080108 20:00;;2.338;2.195;1.75
BC;uur;�g/m�;20080108 20:00;20080108 21:00;;1.548;1.349;1.484
BC;uur;�g/m�;20080108 21:00;20080108 22:00;;1.247;1.007;1.451
BC;uur;�g/m�;20080108 22:00;20080108 23:00;;0.911;0.823;1.108
BC;uur;�g/m�;20080108 23:00;20080109 00:00;;0.832;0.716;0.74
BC;uur;�g/m�;20080109 00:00;20080109 01:00;;0.703;0.724;0.732
BC;uur;�g/m�;20080109 01:00;20080109 02:00;;0.656;0.648;0.545
BC;uur;�g/m�;20080109 02:00;20080109 03:00;;;0.537;0.54
BC;uur;�g/m�;20080109 03:00;20080109 04:00;;0.473;0.449;0.654
BC;uur;�g/m�;20080109 04:00;20080109 05:00;;0.517;0.502;0.85
BC;uur;�g/m�;20080109 05:00;20080109 06:00;;0.764;0.752;0.688
BC;uur;�g/m�;20080109 06:00;20080109 07:00;;1.85;1.113;1.157
BC;uur;�g/m�;20080109 07:00;20080109 08:00;;2.661;1.545;2.092
BC;uur;�g/m�;20080109 08:00;20080109 09:00;;3.32;1.596;1.362
BC;uur;�g/m�;20080109 09:00;20080109 10:00;;;1.93;1.063
BC;uur;�g/m�;20080109 10:00;20080109 11:00;;3.848;1.564;1.232
BC;uur;�g/m�;20080109 11:00;20080109 12:00;;3.738;1.689;1.127
BC;uur;�g/m�;20080109 12:00;20080109 13:00;;3.803;1.571;1.493
BC;uur;�g/m�;20080109 13:00;20080109 14:00;;2.881;1.183;1.257
BC;uur;�g/m�;20080109 14:00;20080109 15:00;;2.855;1.396;1.519
BC;uur;�g/m�;20080109 15:00;20080109 16:00;;3.51;1.646;1.242
BC;uur;�g/m�;20080109 16:00;20080109 17:00;;;1.402;1.519
BC;uur;�g/m�;20080109 17:00;20080109 18:00;;3.734;2.02;1.04
BC;uur;�g/m�;20080109 18:00;20080109 19:00;;3.475;1.778;1.583
BC;uur;�g/m�;20080109 19:00;20080109 20:00;;5.809;1.547;0.811
BC;uur;�g/m�;20080109 20:00;20080109 21:00;;;1.549;1.277
BC;uur;�g/m�;20080109 21:00;20080109 22:00;;2.755;1.245;1.029
BC;uur;�g/m�;20080109 22:00;20080109 23:00;;1.947;1.425;0.919
BC;uur;�g/m�;20080109 23:00;20080110 00:00;;1.677;1.37;1.255
BC;uur;�g/m�;20080110 00:00;20080110 01:00;;1.712;1.245;1.209
BC;uur;�g/m�;20080110 01:00;20080110 02:00;;1.318;1.144;0.851
BC;uur;�g/m�;20080110 02:00;20080110 03:00;;0.96;1;0.801
BC;uur;�g/m�;20080110 03:00;20080110 04:00;;0.771;0.771;0.774
BC;uur;�g/m�;20080110 04:00;20080110 05:00;;;0.69;0.671
BC;uur;�g/m�;20080110 05:00;20080110 06:00;;0.827;0.858;0.523
BC;uur;�g/m�;20080110 06:00;20080110 07:00;;1.144;1.795;0.798
BC;uur;�g/m�;20080110 07:00;20080110 08:00;;1.603;1.676;1.109
BC;uur;�g/m�;20080110 08:00;20080110 09:00;;1.889;1.899;1.234
BC;uur;�g/m�;20080110 09:00;20080110 10:00;;;1.497;1.114
BC;uur;�g/m�;20080110 10:00;20080110 11:00;;1.856;1.625;1.362
BC;uur;�g/m�;20080110 11:00;20080110 12:00;;1.678;1.422;1.007
BC;uur;�g/m�;20080110 12:00;20080110 13:00;;1.508;1.182;1.196
BC;uur;�g/m�;20080110 13:00;20080110 14:00;;1.714;1.386;1.028
BC;uur;�g/m�;20080110 14:00;20080110 15:00;;1.555;1.488;1.476
BC;uur;�g/m�;20080110 15:00;20080110 16:00;;1.66;1.722;1.409
BC;uur;�g/m�;20080110 16:00;20080110 17:00;;1.74;1.752;1.409
BC;uur;�g/m�;20080110 17:00;20080110 18:00;;1.679;1.752;1.346
BC;uur;�g/m�;20080110 18:00;20080110 19:00;;1.538;1.388;1.277
BC;uur;�g/m�;20080110 19:00;20080110 20:00;;1.467;1.181;1.063
BC;uur;�g/m�;20080110 20:00;20080110 21:00;;1.511;1.126;1.084
BC;uur;�g/m�;20080110 21:00;20080110 22:00;;;1.231;0.979
BC;uur;�g/m�;20080110 22:00;20080110 23:00;;1.474;1.156;1.127
BC;uur;�g/m�;20080110 23:00;20080111 00:00;;1.249;0.977;1.294
BC;uur;�g/m�;20080111 00:00;20080111 01:00;;0.965;0.907;0.952
BC;uur;�g/m�;20080111 01:00;20080111 02:00;;0.942;0.783;0.95
BC;uur;�g/m�;20080111 02:00;20080111 03:00;;0.928;0.843;0.672
BC;uur;�g/m�;20080111 03:00;20080111 04:00;;0.926;0.8;0.801
BC;uur;�g/m�;20080111 04:00;20080111 05:00;;0.673;0.687;0.66
BC;uur;�g/m�;20080111 05:00;20080111 06:00;;0.762;0.867;0.84
BC;uur;�g/m�;20080111 06:00;20080111 07:00;;1.054;0.894;1.093
BC;uur;�g/m�;20080111 07:00;20080111 08:00;;1.264;1.441;1.571
BC;uur;�g/m�;20080111 08:00;20080111 09:00;;1.602;1.791;1.152
BC;uur;�g/m�;20080111 09:00;20080111 10:00;;2.765;2.075;1.339
BC;uur;�g/m�;20080111 10:00;20080111 11:00;;3.884;2.772;1.639
BC;uur;�g/m�;20080111 11:00;20080111 12:00;;3.517;2.991;1.888
BC;uur;�g/m�;20080111 12:00;20080111 13:00;;3.563;2.797;1.473
BC;uur;�g/m�;20080111 13:00;20080111 14:00;;3.588;2.64;1.661
BC;uur;�g/m�;20080111 14:00;20080111 15:00;;3.601;2.902;1.769
BC;uur;�g/m�;20080111 15:00;20080111 16:00;;4.396;3.144;1.203
BC;uur;�g/m�;20080111 16:00;20080111 17:00;;4.831;3.184;1.458
BC;uur;�g/m�;20080111 17:00;20080111 18:00;;2.766;2.155;1.552
BC;uur;�g/m�;20080111 18:00;20080111 19:00;;2.448;2.247;1.464
BC;uur;�g/m�;20080111 19:00;20080111 20:00;;2.683;2.375;1.258
BC;uur;�g/m�;20080111 20:00;20080111 21:00;;2.815;2.253;1.415
BC;uur;�g/m�;20080111 21:00;20080111 22:00;;2.466;2.075;1.926
BC;uur;�g/m�;20080111 22:00;20080111 23:00;;1.378;1.186;1.317
BC;uur;�g/m�;20080111 23:00;20080112 00:00;;0.994;0.914;1.107
BC;uur;�g/m�;20080112 00:00;20080112 01:00;;0.963;1.036;1.291
BC;uur;�g/m�;20080112 01:00;20080112 02:00;;1.232;0.959;0.945
BC;uur;�g/m�;20080112 02:00;20080112 03:00;;1.396;0.967;0.856
BC;uur;�g/m�;20080112 03:00;20080112 04:00;;0.527;0.607;0.543
BC;uur;�g/m�;20080112 04:00;20080112 05:00;;0.824;0.586;0.682
BC;uur;�g/m�;20080112 05:00;20080112 06:00;;1.325;0.869;0.968
BC;uur;�g/m�;20080112 06:00;20080112 07:00;;;0.847;1.225
BC;uur;�g/m�;20080112 07:00;20080112 08:00;;1.531;1.078;0.754
BC;uur;�g/m�;20080112 08:00;20080112 09:00;;0.525;0.217;0.068
BC;uur;�g/m�;20080112 09:00;20080112 10:00;;;0.516;0.453
BC;uur;�g/m�;20080112 10:00;20080112 11:00;;0.98;0.82;0.557
BC;uur;�g/m�;20080112 11:00;20080112 12:00;;1.383;0.807;0.418
BC;uur;�g/m�;20080112 12:00;20080112 13:00;;;0.596;0.404
BC;uur;�g/m�;20080112 13:00;20080112 14:00;;1.396;0.697;0.6
BC;uur;�g/m�;20080112 14:00;20080112 15:00;;2.009;0.579;0.552
BC;uur;�g/m�;20080112 15:00;20080112 16:00;;1.432;0.659;0.883
BC;uur;�g/m�;20080112 16:00;20080112 17:00;;2.142;0.993;1.551
BC;uur;�g/m�;20080112 17:00;20080112 18:00;;2.957;1.281;1.439
BC;uur;�g/m�;20080112 18:00;20080112 19:00;;2.96;2.021;0.799
BC;uur;�g/m�;20080112 19:00;20080112 20:00;;;1.5;1.657
BC;uur;�g/m�;20080112 20:00;20080112 21:00;;2.55;2.205;1.4
BC;uur;�g/m�;20080112 21:00;20080112 22:00;;2.538;1.689;1.583
BC;uur;�g/m�;20080112 22:00;20080112 23:00;;3.027;1.588;1.757
BC;uur;�g/m�;20080112 23:00;20080113 00:00;;2.71;2.06;1.588
BC;uur;�g/m�;20080113 00:00;20080113 01:00;;1.581;1.785;1.969
BC;uur;�g/m�;20080113 01:00;20080113 02:00;;1.592;1.453;1.482
BC;uur;�g/m�;20080113 02:00;20080113 03:00;;1.402;1.472;1.317
BC;uur;�g/m�;20080113 03:00;20080113 04:00;;1.607;1.477;1.252
BC;uur;�g/m�;20080113 04:00;20080113 05:00;;1.605;1.672;1.238
BC;uur;�g/m�;20080113 05:00;20080113 06:00;;1.696;1.668;1.684
BC;uur;�g/m�;20080113 06:00;20080113 07:00;;1.427;1.003;1.072
BC;uur;�g/m�;20080113 07:00;20080113 08:00;;0.982;0.652;0.959
BC;uur;�g/m�;20080113 08:00;20080113 09:00;;;0.588;0.747
BC;uur;�g/m�;20080113 09:00;20080113 10:00;;0.709;0.634;0.594
BC;uur;�g/m�;20080113 10:00;20080113 11:00;;0.65;0.646;0.735
BC;uur;�g/m�;20080113 11:00;20080113 12:00;;0.684;0.804;0.59
BC;uur;�g/m�;20080113 12:00;20080113 13:00;;0.831;0.844;0.853
BC;uur;�g/m�;20080113 13:00;20080113 14:00;;1.159;0.999;0.934
BC;uur;�g/m�;20080113 14:00;20080113 15:00;;1.846;1.08;1.398
BC;uur;�g/m�;20080113 15:00;20080113 16:00;;1.722;1.316;1.042
BC;uur;�g/m�;20080113 16:00;20080113 17:00;;1.786;1.145;1.681
BC;uur;�g/m�;20080113 17:00;20080113 18:00;;1.732;1.329;1.426
BC;uur;�g/m�;20080113 18:00;20080113 19:00;;1.686;1.259;0.961
BC;uur;�g/m�;20080113 19:00;20080113 20:00;;1.402;1.485;0.904
BC;uur;�g/m�;20080113 20:00;20080113 21:00;;1.515;1.739;1.116
BC;uur;�g/m�;20080113 21:00;20080113 22:00;;1.519;2.081;1.271
BC;uur;�g/m�;20080113 22:00;20080113 23:00;;1.564;1.918;1.486
BC;uur;�g/m�;20080113 23:00;20080114 00:00;;1.481;1.615;1.314
BC;uur;�g/m�;20080114 00:00;20080114 01:00;;1.301;1.724;1.487
BC;uur;�g/m�;20080114 01:00;20080114 02:00;;1.299;1.944;1.422
BC;uur;�g/m�;20080114 02:00;20080114 03:00;;1.228;1.368;1.275
BC;uur;�g/m�;20080114 03:00;20080114 04:00;;1.093;0.873;1.031
BC;uur;�g/m�;20080114 04:00;20080114 05:00;;;1.028;0.911
BC;uur;�g/m�;20080114 05:00;20080114 06:00;;1.247;0.993;0.78
BC;uur;�g/m�;20080114 06:00;20080114 07:00;;2.213;1.315;0.881
BC;uur;�g/m�;20080114 07:00;20080114 08:00;;1.893;1.674;1.148
BC;uur;�g/m�;20080114 08:00;20080114 09:00;;1.718;1.439;1.118
BC;uur;�g/m�;20080114 09:00;20080114 10:00;;1.795;1.511;1.039
BC;uur;�g/m�;20080114 10:00;20080114 11:00;;2.043;2.087;1.184
BC;uur;�g/m�;20080114 11:00;20080114 12:00;;1.809;1.397;1.344
BC;uur;�g/m�;20080114 12:00;20080114 13:00;;1.692;1.254;1.016
BC;uur;�g/m�;20080114 13:00;20080114 14:00;;1.506;1.195;1.115
BC;uur;�g/m�;20080114 14:00;20080114 15:00;;1.483;1.211;1.254
BC;uur;�g/m�;20080114 15:00;20080114 16:00;;1.752;1.429;1.192
BC;uur;�g/m�;20080114 16:00;20080114 17:00;;1.856;1.761;1.434
BC;uur;�g/m�;20080114 17:00;20080114 18:00;;2.057;1.571;1.38
BC;uur;�g/m�;20080114 18:00;20080114 19:00;;1.731;1.558;1.083
BC;uur;�g/m�;20080114 19:00;20080114 20:00;;1.513;1.298;1.138
BC;uur;�g/m�;20080114 20:00;20080114 21:00;;1.186;1.124;1.032
BC;uur;�g/m�;20080114 21:00;20080114 22:00;;1.187;1.171;0.651
BC;uur;�g/m�;20080114 22:00;20080114 23:00;;1.164;1.143;1.147
BC;uur;�g/m�;20080114 23:00;20080115 00:00;;1.034;1.059;1.094
BC;uur;�g/m�;20080115 00:00;20080115 01:00;;0.838;1.014;1.012
BC;uur;�g/m�;20080115 01:00;20080115 02:00;;0.88;0.836;0.893
BC;uur;�g/m�;20080115 02:00;20080115 03:00;;0.795;0.832;0.929
BC;uur;�g/m�;20080115 03:00;20080115 04:00;;0.733;0.696;0.962
BC;uur;�g/m�;20080115 04:00;20080115 05:00;;0.641;0.683;0.987
BC;uur;�g/m�;20080115 05:00;20080115 06:00;;0.613;0.649;0.939
BC;uur;�g/m�;20080115 06:00;20080115 07:00;;0.824;0.764;0.732
BC;uur;�g/m�;20080115 07:00;20080115 08:00;;1.054;1.071;1.038
BC;uur;�g/m�;20080115 08:00;20080115 09:00;;1.085;1.079;0.74
BC;uur;�g/m�;20080115 09:00;20080115 10:00;;1.299;0.936;0.947
BC;uur;�g/m�;20080115 10:00;20080115 11:00;;1.262;1.265;0.746
BC;uur;�g/m�;20080115 11:00;20080115 12:00;;1.191;1.211;0.801
BC;uur;�g/m�;20080115 12:00;20080115 13:00;;1.068;1.322;0.571
BC;uur;�g/m�;20080115 13:00;20080115 14:00;;1.051;1.007;
BC;uur;�g/m�;20080115 14:00;20080115 15:00;;1.154;1.111;0.884
BC;uur;�g/m�;20080115 15:00;20080115 16:00;;1.038;0.871;0.691
BC;uur;�g/m�;20080115 16:00;20080115 17:00;;1.021;0.838;0.923
BC;uur;�g/m�;20080115 17:00;20080115 18:00;;1.031;0.778;0.789
BC;uur;�g/m�;20080115 18:00;20080115 19:00;;0.96;0.713;0.64
BC;uur;�g/m�;20080115 19:00;20080115 20:00;;0.867;0.605;0.786
BC;uur;�g/m�;20080115 20:00;20080115 21:00;;0.691;0.566;0.669
BC;uur;�g/m�;20080115 21:00;20080115 22:00;;0.56;0.44;0.802
BC;uur;�g/m�;20080115 22:00;20080115 23:00;;0.543;0.437;0.576
BC;uur;�g/m�;20080115 23:00;20080116 00:00;;0.51;0.409;0.551
BC;uur;�g/m�;20080116 00:00;20080116 01:00;;0.395;0.417;1.115
BC;uur;�g/m�;20080116 01:00;20080116 02:00;;0.319;0.371;0.412
BC;uur;�g/m�;20080116 02:00;20080116 03:00;;0.379;0.417;0.462
BC;uur;�g/m�;20080116 03:00;20080116 04:00;;0.371;0.458;1.02
BC;uur;�g/m�;20080116 04:00;20080116 05:00;;0.265;0.34;0.569
BC;uur;�g/m�;20080116 05:00;20080116 06:00;;0.455;0.383;0.731